"Pseudo-MPEC" for P22jXrI

Created 2026 Jan 13 11:35:11 UT using Find_Orb

Click here for an explanation of pseudo-MPECs

 
 Astrometry: 
     P22jXrI* C2026 01 09.44162507 28 29.779+42 15 08.42   ~19DZ 22.03wXNEOCPF52
     P22jXrI  C2026 01 09.45274807 28 28.686+42 15 10.38   ~19DZ 21.45wXNEOCPF52
     P22jXrI  C2026 01 09.46389607 28 27.607+42 15 12.12   ~19DZ 21.54wXNEOCPF52
     P22jXrI  C2026 01 09.47503507 28 26.522+42 15 14.02   ~19DZ 21.78wXNEOCPF52
     P22jXrI  C2026 01 09.57366107 28 17.057+42 15 27.36   ~19Io 21.05GVNEOCPF51
     P22jXrI  C2026 01 09.57430707 28 17.041+42 15 27.67   ~19Io 21.85GVNEOCPF51
     P22jXrI 3C2026 01 12.34772707 24 11.292+42 21 12.98   ~1CDo 22.03GVNEOCPT14
     P22jXrI 3C2026 01 12.34869807 24 11.194+42 21 13.07   ~1CDo 21.84GVNEOCPT14
     P22jXrI 3C2026 01 12.34967107 24 11.096+42 21 13.19   ~1CDo 22.01GVNEOCPT14
     P22jXrI KC2026 01 13.22444307 22 50.89 +42 22 01.7    ~1D6K 22.3 GVNEOCPH21
     P22jXrI KC2026 01 13.23283107 22 50.09 +42 22 02.3    ~1D6K 21.8 GVNEOCPH21
     P22jXrI KC2026 01 13.23982007 22 49.38 +42 22 02.4    ~1D6K 22.0 GVNEOCPH21

Station data:
(F51) Pan-STARRS 1, Haleakala  (N20.707234 W156.255910)  US/Hawaii.
   Observers J. Herman, T. Lowe, P. Minguez, A. Schultz, I. Smith. Measurers
   K. Chambers, T. de Boer, J. Fairlamb, H. Gao, M. Huber, C.-C. Lin, E.
   Magnier, Y. Ramanjooloo, R. Wainscoat, R. Weryk. 1.8-m Ritchey-Chrétien +
   CCD.
(F52) Pan-STARRS 2, Haleakala  (N20.707382 W156.255910)  US/Hawaii.
   Observers J. Herman, T. Lowe, P. Minguez, A. Schultz, I. Smith. Measurers
   K. Chambers, T. de Boer, J. Fairlamb, H. Gao, M. Huber, C.-C. Lin, E.
   Magnier, Y. Ramanjooloo, R. Wainscoat, R. Weryk. 1.8-m Ritchey-Chrétien +
   CCD.
(H21) Astronomical Research Observatory, Westfield  (N39.483054 W87.968270)
   US/Illinois.  Observer R. Holmes. Measurers S. Foglia, L. Buzzi, T.
   Linder, R. Holmes. 0.40-m f/5.32 astrograph + CCD.
(T14) Mauna Kea-UH/Tholen NEO Follow-Up (CFHT)  (N19.825252 W155.468876)
   US/Hawaii.  Observer R. Weryk. 3.6-m Canada-France-Hawaii Telescope.

Orbital elements:  P22jXrI
   Perihelion 2026 Apr 5.629375 +/- 0.493 TT = 15:06:18.0 (JD 2461136.129375)
Epoch 2026 Jan 13.0 TT = JDT 2461053.5   Earth MOID: 0.3101      AutoNEOCP
M 325.819936846 +/- 0.030           (J2000 ecliptic)
n   0.413655107 +/- 0.00282         Peri.  169.493879 +/- 0.6
a   1.783927178 +/- 0.0081          Node   358.272365 +/- 0.29
e   0.26972376 +/- 0.00369          Incl.    7.109393 +/- 0.041
P   2.383/870.274d         H 21.91  G  0.15   U  8.8
q 1.302759618 +/- 0.00297    Q 2.265094738 +/- 0.0164
From 12 observations 2026 Jan. 9-13; mean residual 0".14
Residuals in arcseconds: 
260109 F52  .21+  .04+    260109 F51  .35-  .16-    260112 T14  .02-  .01-    
260109 F52  .04+  .08+    260109 F51  .14+  .07+    260113 H21  .21-  .15+    
260109 F52  .05+  .04-    260112 T14  .02+  .00     260113 H21  .14+  .34+    
260109 F52  .03-  .06+    260112 T14  .00   .02-    260113 H21  .04-  .12+    

Ephemerides (geocentric):
Date (UTC) HH   RA             Dec           delta  r     elong  mag " sig PA
---- --------  ------------   ------------  ------ ------ -----  --- --------
2026 01 13 12  07 22 25.634   +42 22 11.68  .48137 1.4430 158.8 21.9 .341   6
2026 01 13 13  07 22 21.827   +42 22 13.11  .48127 1.4428 158.8 21.9 .355   5
2026 01 13 14  07 22 18.021   +42 22 14.48  .48117 1.4427 158.8 21.9 .369   5
2026 01 13 15  07 22 14.213   +42 22 15.78  .48107 1.4426 158.8 21.9 .384   4
2026 01 13 16  07 22 10.405   +42 22 17.03  .48097 1.4425 158.8 21.9 .399   3
2026 01 13 17  07 22 06.596   +42 22 18.21  .48087 1.4423 158.7 21.9 .415   3
2026 01 13 18  07 22 02.787   +42 22 19.33  .48078 1.4422 158.7 21.9 .430   3
2026 01 13 19  07 21 58.977   +42 22 20.39  .48068 1.4421 158.7 21.9 .446   2
2026 01 13 20  07 21 55.166   +42 22 21.38  .48058 1.4420 158.7 21.9 .462   2
2026 01 13 21  07 21 51.355   +42 22 22.31  .48049 1.4418 158.7 21.9 .478   1
2026 01 13 22  07 21 47.543   +42 22 23.18  .48039 1.4417 158.7 21.9 .495   1
2026 01 13 23  07 21 43.730   +42 22 23.99  .48029 1.4416 158.6 21.9 .512   0
2026 01 14 00  07 21 39.918   +42 22 24.73  .48020 1.4415 158.6 21.9 .529   0
2026 01 14 01  07 21 36.104   +42 22 25.41  .48010 1.4413 158.6 21.9 .547   0
2026 01 14 02  07 21 32.290   +42 22 26.02  .48001 1.4412 158.6 21.9 .564 179
2026 01 14 03  07 21 28.476   +42 22 26.58  .47991 1.4411 158.6 21.9 .582 179
2026 01 14 04  07 21 24.661   +42 22 27.07  .47982 1.4410 158.6 21.9 .600 179
2026 01 14 05  07 21 20.846   +42 22 27.49  .47972 1.4408 158.5 21.9 .619 178
2026 01 14 06  07 21 17.030   +42 22 27.86  .47963 1.4407 158.5 21.9 .638 178
2026 01 14 07  07 21 13.214   +42 22 28.16  .47954 1.4406 158.5 21.9 .656 178
2026 01 14 08  07 21 09.398   +42 22 28.39  .47944 1.4405 158.5 21.9 .676 177
2026 01 14 09  07 21 05.581   +42 22 28.57  .47935 1.4403 158.5 21.9 .695 177
2026 01 14 10  07 21 01.764   +42 22 28.68  .47926 1.4402 158.5 21.9 .715 177
2026 01 14 11  07 20 57.947   +42 22 28.72  .47916 1.4401 158.4 21.9 .735 177
2026 01 14 12  07 20 54.130   +42 22 28.71  .47907 1.4399 158.4 21.9 .755 176
2026 01 14 13  07 20 50.312   +42 22 28.63  .47898 1.4398 158.4 21.9 .776 176
2026 01 14 14  07 20 46.494   +42 22 28.48  .47889 1.4397 158.4 21.9 .797 176
2026 01 14 15  07 20 42.675   +42 22 28.28  .47880 1.4396 158.4 21.9 .818 176
2026 01 14 16  07 20 38.857   +42 22 28.00  .47870 1.4394 158.3 21.9 .839 175
2026 01 14 17  07 20 35.038   +42 22 27.67  .47861 1.4393 158.3 21.9 .860 175
2026 01 14 18  07 20 31.220   +42 22 27.27  .47852 1.4392 158.3 21.9 .882 175
2026 01 14 19  07 20 27.401   +42 22 26.81  .47843 1.4391 158.3 21.9 .904 175
2026 01 14 20  07 20 23.582   +42 22 26.28  .47834 1.4389 158.3 21.9 .927 174
2026 01 14 21  07 20 19.763   +42 22 25.69  .47825 1.4388 158.2 21.9 .949 174
2026 01 14 22  07 20 15.943   +42 22 25.04  .47816 1.4387 158.2 21.9 .972 174
2026 01 14 23  07 20 12.124   +42 22 24.32  .47807 1.4386 158.2 21.9 1.00 174
2026 01 15 00  07 20 08.305   +42 22 23.54  .47798 1.4384 158.2 21.9 1.02 174
2026 01 15 01  07 20 04.486   +42 22 22.69  .47790 1.4383 158.2 21.9 1.04 173
2026 01 15 02  07 20 00.667   +42 22 21.79  .47781 1.4382 158.1 21.9 1.07 173
2026 01 15 03  07 19 56.847   +42 22 20.81  .47772 1.4381 158.1 21.9 1.09 173
2026 01 15 04  07 19 53.028   +42 22 19.77  .47763 1.4379 158.1 21.9 1.12 173
2026 01 15 05  07 19 49.209   +42 22 18.67  .47754 1.4378 158.1 21.9 1.14 173
2026 01 15 06  07 19 45.390   +42 22 17.51  .47746 1.4377 158.1 21.9 1.16 173
2026 01 15 07  07 19 41.572   +42 22 16.28  .47737 1.4376 158.0 21.9 1.19 172
2026 01 15 08  07 19 37.753   +42 22 14.98  .47728 1.4374 158.0 21.9 1.22 172
2026 01 15 09  07 19 33.934   +42 22 13.62  .47719 1.4373 158.0 21.9 1.24 172
2026 01 15 10  07 19 30.116   +42 22 12.20  .47711 1.4372 158.0 21.9 1.27 172
2026 01 15 11  07 19 26.298   +42 22 10.71  .47702 1.4371 158.0 21.9 1.29 172